******************************************************************************* JPL/HORIZONS 15P/Finlay 2025-Dec-12 21:09:33 Rec #:90000258 (+COV) Soln.date: 2024-Apr-16_11:19:30 # obs: 1655 (2008-2022) IAU76/J2000 helio. ecliptic osc. elements (au, days, deg., period=Julian yrs): EPOCH= 2457327.5 ! 2015-Nov-01.0000000 (TDB) RMSW= n.a. EC= .7201854360264079 QR= .9766869801813776 TP= 2457018.5726384027 OM= 13.75387475146649 W= 347.6257499652587 IN= 6.800480403047977 A= 3.490479431490757 MA= 46.69096226297147 ADIST= 6.004271882800135 PER= 6.5213247379125 N= .151138967 ANGMOM= .022297017 DAN= .98628 DDN= 5.66552 L= 1.4640288 B= -1.4540551 MOID= .00922581 TP= 2014-Dec-27.0726384027 Comet physical (GM= km^3/s^2; RAD= km): GM= n.a. RAD= n.a. M1= 14.9 M2= n.a. k1= 8.5 k2= n.a. PHCOF= n.a. Comet non-gravitational force model (AMRAT=m^2/kg;A1-A3=au/d^2;DT=days;R0=au): AMRAT= 0. DT= 0. A1= 2.189036905766E-9 A2= -2.324458770454E-10 A3= 1.554466187954E-9 Standard model: ALN= .1112620426 NK= 4.6142 NM= 2.15 NN= 5.093 R0= 2.808 COMET comments 1: soln ref.= JPL#K213/18, data arc: 2008-04-27 to 2022-03-03 2: k1=8.5; ******************************************************************************* ******************************************************************************* Ephemeris / WWW_USER Fri Dec 12 21:09:33 2025 Pasadena, USA / Horizons ******************************************************************************* Target body name: 15P/Finlay {source: JPL#K213/18} Center body name: Jupiter (599) {source: jup365_merged} Center-site name: BODYCENTRIC ******************************************************************************* Start time : A.D. 1886-Jul-20 22:32:00.0000 UT Stop time : A.D. 1886-Jul-21 00:00:00.0000 UT Step-size : 1440 minutes ******************************************************************************* Target pole/equ : undefined Target radii : undefined Center geodetic : 0.0, 0.0, -71492.0 {W-lon(deg),Lat(deg),Alt(km)} Center cylindric: 0.0, 0.0, 0.0 {W-lon(deg),Dxy(km),Dz(km)} Center pole/equ : IAU_JUPITER {West-longitude positive} Center radii : 71492.0, 71492.0, 66854.0 km {Equator_a, b, pole_c} Target primary : Sun Vis. interferer : IO (R_eq= 1829.400) km {source: jup365_merged} Rel. light bend : Sun {source: jup365_merged} Rel. lght bnd GM: 1.3271E+11 km^3/s^2 Small-body perts: Yes {source: SB441-N16} Atmos refraction: NO (AIRLESS) RA format : HMS Time format : CAL Calendar mode : Mixed Julian/Gregorian EOP file : eop.251212.p260310 EOP coverage : DATA-BASED 1962-JAN-20 TO 2025-DEC-12. PREDICTS-> 2026-MAR-09 Units conversion: 1 au= 149597870.700 km, c= 299792.458 km/s, 1 day= 86400.0 s Table cut-offs 1: Elevation (-90.0deg=NO ),Airmass n.a. , Daylight (NO ) Table cut-offs 2: Solar elongation ( 0.0,180.0=NO ),Local Hour Angle( 0.0=NO ) Table cut-offs 3: RA/DEC angular rate ( 0.0=NO ) ******************************************************************************* Initial IAU76/J2000 heliocentric ecliptic osculating elements (au, days, deg.): EPOCH= 2457327.5 ! 2015-Nov-01.0000000 (TDB) RMSW= n.a. EC= .7201854360264079 QR= .9766869801813776 TP= 2457018.5726384027 OM= 13.75387475146649 W= 347.6257499652587 IN= 6.800480403047977 Equivalent ICRF heliocentric cartesian coordinates (au, au/d): X=-2.440330797692646E+00 Y= 2.013496073637186E+00 Z= 1.244072302414979E+00 VX=-9.446666292010828E-03 VY=-1.115623497185734E-04 VZ= 2.428263184812409E-04 Comet physical (GM= km^3/s^2; RAD= km): GM= n.a. RAD= n.a. M1= 14.9 M2= n.a. k1= 8.5 k2= n.a. PHCOF= n.a. Comet non-gravitational force model (AMRAT=m^2/kg;A1-A3=au/d^2;DT=days;R0=au): AMRAT= 0. DT= 0. A1= 2.189036905766E-9 A2= -2.324458770454E-10 A3= 1.554466187954E-9 Standard model: ALN= .1112620426 NK= 4.6142 NM= 2.15 NN= 5.093 R0= 2.808 ********************************************************************************************************* Date__(UT)__HR:MN r rdot delta deldot VmagSn VmagOb ********************************************************************************************************* $$SOE 1886-Jul-20 22:32 1.883147339918 -16.2120595 5.45739595818256 13.3800977 26.2927169 34.0018754 $$EOE ********************************************************************************************************* Column meaning: TIME Times PRIOR to 1962 are UT1, a mean-solar time closely related to the prior but now-deprecated GMT. Times AFTER 1962 are in UTC, the current civil or "wall-clock" time-scale. UTC is kept within 0.9 seconds of UT1 using integer leap-seconds for 1972 and later years. Conversion from the internal Barycentric Dynamical Time (TDB) of solar system dynamics to the non-uniform civil UT time-scale requested for output has not been determined for UTC times after the next July or January 1st. Therefore, the last known leap-second is used as a constant over future intervals. Time tags refer to the UT time-scale conversion from TDB on Earth regardless of observer location within the solar system, although clock rates may differ due to the local gravity field and no analog to "UT" may be defined for that location. Any 'b' symbol in the 1st-column denotes a B.C. date. First-column blank (" ") denotes an A.D. date. CALENDAR SYSTEM Mixed calendar mode was active such that calendar dates after AD 1582-Oct-15 (if any) are in the modern Gregorian system. Dates prior to 1582-Oct-5 (if any) are in the Julian calendar system, which is automatically extended for dates prior to its adoption on 45-Jan-1 BC. The Julian calendar is useful for matching historical dates. The Gregorian calendar more accurately corresponds to the Earth's orbital motion and seasons. A "Gregorian-only" calendar mode is available if such physical events are the primary interest. NOTE: "n.a." in output means quantity "not available" at the print-time. 'r rdot' = The Sun's apparent range ("r", light-time aberrated) and range-rate ("rdot") relative to the target center, as seen by the observer. A positive "rdot" means the target center was moving away from the Sun, negative means moving toward the Sun. Units: AU and KM/S 'delta deldot' = Apparent range ("delta", light-time aberrated) and range-rate ("delta-dot") of the target center relative to the observer. A positive "deldot" means the target center is moving away from the observer, negative indicates movement toward the observer. Units: AU and KM/S 'VmagSn VmagOb' = Magnitude of target centers' velocity with respect to the Sun ("VmagSn") and the observer ("VmagOb") at the time light left the target center to be observed (print time minus down-leg light-time). These are absolute values of the velocity vectors (total speeds) and do NOT indicate direction of motion. Units: KM/S Computations by ... Solar System Dynamics Group, Horizons On-Line Ephemeris System 4800 Oak Grove Drive, Jet Propulsion Laboratory Pasadena, CA 91109 USA General site: https://ssd.jpl.nasa.gov/ Mailing list: https://ssd.jpl.nasa.gov/email_list.html System news : https://ssd.jpl.nasa.gov/horizons/news.html User Guide : https://ssd.jpl.nasa.gov/horizons/manual.html Connect : browser https://ssd.jpl.nasa.gov/horizons/app.html#/x API https://ssd-api.jpl.nasa.gov/doc/horizons.html command-line telnet ssd.jpl.nasa.gov 6775 e-mail/batch https://ssd.jpl.nasa.gov/ftp/ssd/horizons_batch.txt scripts https://ssd.jpl.nasa.gov/ftp/ssd/SCRIPTS Author : Jon.D.Giorgini@jpl.nasa.gov ********************************************************************************************************* !$$SOF CENTER = '@599' COMMAND = '90000258' QUANTITIES = '19,20,22' START_TIME = '1886-Jul-20 22:32' STEP_SIZE = '1 day' STOP_TIME = '1886-Jul-21'